Regional Weather Roundup
Issued by NWS Portland, ME

Home | Current Version | Previous Version | Text Only | Print | Product List | Glossary On
Versions: 1 2 3 4 5 6 7 8 9 10 11 12 13 14 15 16 17 18 19 20 21 22 23 24 25 26 27 28 29 30 31 32 33 34 35 36 37 38 39 40 41 42 43 44 45 46 47 48 49 50
000
ASUS41 KGYX 180510
RWRGYX
WEATHER ROUNDUP FOR MAINE AND NEW HAMPSHIRE
NATIONAL WEATHER SERVICE GRAY ME
100 AM EDT SAT APR 18 2015

MEZ002-005-006-010-012-015-018-020-021-024-026-027-029-180600-
MAINE

CITY           SKY/WX    TMP DP  RH WIND       PRES   REMARKS
PORTLAND       CLEAR     49  42  77 SW3       29.87R
SANFORD        CLEAR     46  39  76 W9        29.89R
BAR HARBOR     CLEAR     48  43  81 W3        29.82R
WISCASSET      CLEAR     40  37  89 CALM      29.86R
ROCKLAND       CLEAR     39  36  87 CALM      29.84R
FRYEBURG       PTCLDY    51  39  63 W3        29.87R
LEWISTONAUBURN CLEAR     39  34  81 CALM      29.86S
AUGUSTA        CLEAR     53  38  56 W7        29.86R
WATERVILLE     PTCLDY    54  37  54 N9        29.84R
BANGOR         CLEAR     51  39  63 W6        29.84R
GREENVILLE       N/A     41  33  73 NW9       29.83R
MILLINOCKET    MOCLDY    46  36  68 NW7       29.85R
HOULTON        PTCLDY    42  27  55 N13       29.83R
PRESQUE ISLE   PTCLDY    37  25  60 NW7       29.87R
FRENCHVILLE    CLEAR     35  23  61 NW12      29.85R
CARIBOU        CLEAR     36  25  64 NW9       29.85R
$$

NHZ002-005-008-009-011-012-014-180600-
NEW HAMPSHIRE

CITY           SKY/WX    TMP DP  RH WIND       PRES   REMARKS
PORTSMOUTH     CLEAR     52  45  78 W7        29.89R
ROCHESTER      CLEAR     51  43  74 W5        29.89R
NASHUA         CLEAR     47  44  89 CALM      29.93R
MANCHESTER     CLEAR     49  42  77 CALM      29.90R
CONCORD        CLEAR     41  39  93 CALM      29.92R
LACONIA        FAIR      45  39  81 W5        29.89R
PLYMOUTH       MOCLDY    38  38 100 CALM      29.91R
BERLIN         FAIR      32  29  88 CALM      29.89R
WHITEFIELD     MOCLDY    36  33  89 CALM      29.90R
JAFFREY        CLEAR     49  42  77 VRB5      29.94R
KEENE          CLEAR     43  39  87 CALM      29.96R
LEBANON        FAIR      39  36  89 CALM      29.92R
MT WASHINGTON  FOG       30  30 100 NW45G56     N/A  VSB 0   WCI  12
$$

VTZ005-007-008-180600-
VERMONT

CITY           SKY/WX    TMP DP  RH WIND       PRES   REMARKS
ST JOHNSBURY     N/A     41  36  82 MISG      29.90R
MONTPELIER     MOCLDY    46  36  68 CALM      29.96R
BURLINGTON     CLOUDY    47  37  68 CALM      29.93R
$$

MAZ007-012-024-CTZ003-RIZ002-NYZ038-NYZ072-180600-
SOUTHERN NEW ENGLAND AND NY

CITY           SKY/WX    TMP DP  RH WIND       PRES   REMARKS
BOSTON         CLEAR     56  47  71 W10       29.92R
WORCESTER      CLEAR     52  44  74 W16       29.94R
NANTUCKET      CLOUDY    48  47  96 W7        29.92S FOG
PROVIDENCE     CLEAR     53  49  86 W5        29.94R
HARTFORD       CLEAR     56  45  66 NW3       29.96R
ALBANY         CLEAR     50  44  80 CALM      29.97S
NEW YORK CITY  PTCLDY    62  45  53 N9        29.97S
$$

ANZ081-ANZ082-ANZ150-NHZ014-MEZ023>029-180600-
COASTAL MARINE OBSERVATIONS

STATION/POSITION TIME  TEMP    WIND        PRES    WAVE
                       AIR SEA DIR/SP/G            HT/PER
                 (UTC) (F)     (DEG/KT/KT) (MB)    (FT/S)
MOUNT DESERT ROC 0500   44     250/ 13/ 13 1010.2R
MATINICUS ROCK   0400   46     250/ 17/ 18 1009.9R
WELLS            0412   55 37  280/  5/  8 1010.8R
ISLE OF SHOALS   0400   57     270/ 18/ 18 1010.9R
CASHES LEDGE BUO 0450   45 41              1010.7R   3/ 6
$$

.............KEY..............
   WCI - WIND CHILL
   TC  - TEMPERATURE IN CELSIUS
   VSB - VISIBILITY IN MILES
   HX  - HEAT INDEX
   FAIR- INDICATES FEW OR NO CLOUDS BELOW 12,000 FT, WITH NO
         SIGNIFICANT WEATHER AND/OR OBSTRUCTIONS TO VISIBILITY.




USA.gov is the U.S. government's official web portal to all federal, state and local government web resources and services.